Weather History for Boonville, MO

Change the Weather History Date:

Monday, April 22, 2013

  Actual Average Record
Temperature  
Mean Temperature 58 °F -  
Max Temperature 80 °F 66 °F 87 °F (1980)
Min Temperature 46 °F 45 °F 26 °F (1986)
Degree Days  
Heating Degree Days 6    
Growing Degree Days 8 (Base 50)    
Moisture  
Dew Point 38 °F    
Average Humidity 48    
Maximum Humidity 70    
Minimum Humidity 25    
Precipitation  
Precipitation 0.00 in - - ()
Sea Level Pressure  
Sea Level Pressure 30.07 in    
Wind  
Wind Speed 8 mph (SE)    
Max Wind Speed 15 mph    
Max Gust Speed 26 mph    
Visibility 10 miles    
Events Rain    
Averages and records for this station are not official NWS values.
T = Trace of Precipitation, MM = Missing Value Source: NWS Daily Summary

Daily Weather History Graph

Daily Weather History Graph

Search for Another Location

Airport:

Trip Planner

Search our weather history database for the weather conditions in past years. The results will help you decide how hot, cold, wet, or windy it might be!

Date:

Astronomy

Apr. 22, 2013 Rise Set
Actual Time 6:24 AM CDT 7:54 PM CDT
Civil Twilight 5:55 AM CDT 8:23 PM CDT
Nautical Twilight 5:22 AM CDT 8:57 PM CDT
Astronomical Twilight 4:46 AM CDT 9:32 PM CDT
Moon 4:46 PM CDT (4/22) 4:17 AM CDT (4/22)
Length of Visible Light 14h 27m
Length of Day
13h 30m
Waxing Gibbous, 88% of the Moon is Illuminated
Apr 22
Waxing Gibbous
Apr 25
Full
May 2
Last Quarter
May 9
New
May 17
First Quarter

Hourly Weather History & Observations

Time (CDT) Temp. Dew Point Humidity Pressure Visibility Wind Dir Wind Speed Gust Speed Precip Events Conditions
12:15 AM 52.7 °F 37.8 °F 57% 30.20 in 10.0 mi ESE 8.1 mph - N/A   Scattered Clouds
12:35 AM 52.5 °F 37.6 °F 57% 30.20 in 10.0 mi SE 8.1 mph - N/A   Scattered Clouds
12:55 AM 52.0 °F 37.4 °F 58% 30.21 in 10.0 mi ESE 9.2 mph - N/A   Clear
1:15 AM 52.0 °F 37.2 °F 57% 30.20 in 10.0 mi SE 9.2 mph - N/A   Mostly Cloudy
1:35 AM 52.2 °F 37.4 °F 57% 30.20 in 10.0 mi SE 8.1 mph - N/A   Overcast
1:55 AM 52.2 °F 37.2 °F 57% 30.19 in 10.0 mi SE 9.2 mph - N/A   Overcast
2:15 AM 51.8 °F 36.9 °F 57% 30.18 in 10.0 mi SE 6.9 mph - N/A   Overcast
2:35 AM 50.7 °F 36.9 °F 59% 30.18 in 10.0 mi SE 6.9 mph - N/A   Scattered Clouds
2:55 AM 50.2 °F 37.0 °F 61% 30.18 in 10.0 mi SE 5.8 mph - N/A   Clear
3:15 AM 49.8 °F 37.0 °F 61% 30.17 in 10.0 mi SE 6.9 mph - N/A   Clear
3:35 AM 49.1 °F 37.2 °F 64% 30.17 in 10.0 mi SSE 6.9 mph - N/A   Clear
3:55 AM 48.9 °F 37.4 °F 64% 30.17 in 10.0 mi SE 6.9 mph - N/A   Clear
4:15 AM 48.6 °F 37.6 °F 66% 30.16 in 10.0 mi SE 6.9 mph - N/A   Clear
4:35 AM 48.7 °F 37.8 °F 66% 30.16 in 10.0 mi SSE 6.9 mph - N/A   Clear
4:55 AM 49.1 °F 37.9 °F 65% 30.16 in 10.0 mi SE 6.9 mph - N/A   Clear
5:15 AM 48.9 °F 37.8 °F 65% 30.16 in 10.0 mi SE 6.9 mph - N/A   Clear
5:35 AM 48.7 °F 37.6 °F 65% 30.16 in 10.0 mi SE 6.9 mph - N/A   Clear
5:55 AM 48.2 °F 37.4 °F 66% 30.16 in 10.0 mi SE 6.9 mph - N/A   Clear
6:15 AM 48.2 °F 37.4 °F 66% 30.16 in 10.0 mi SSE 6.9 mph - N/A   Clear
6:35 AM 47.3 °F 37.2 °F 68% 30.17 in 10.0 mi SE 6.9 mph - N/A   Clear
6:55 AM 46.6 °F 37.4 °F 70% 30.17 in 10.0 mi SE 8.1 mph - N/A   Clear
7:15 AM 47.3 °F 37.6 °F 69% 30.17 in 10.0 mi SE 6.9 mph - N/A   Clear
7:35 AM 49.1 °F 37.9 °F 65% 30.17 in 10.0 mi SE 8.1 mph - N/A   Clear
7:55 AM 50.9 °F 37.8 °F 61% 30.16 in 10.0 mi SE 9.2 mph - N/A   Clear
8:15 AM 52.5 °F 37.9 °F 58% 30.15 in 10.0 mi SSE 12.7 mph - N/A   Clear
8:35 AM 53.8 °F 37.2 °F 54% 30.14 in 10.0 mi SSE 10.4 mph - N/A   Clear
8:55 AM 55.8 °F 37.4 °F 50% 30.16 in 10.0 mi South 9.2 mph - N/A   Clear
9:15 AM 57.0 °F 37.2 °F 48% 30.15 in 10.0 mi SSE 12.7 mph - N/A   Clear
9:35 AM 58.6 °F 37.2 °F 45% 30.15 in 10.0 mi SSE 10.4 mph - N/A   Clear
9:55 AM 60.3 °F 38.3 °F 44% 30.15 in 10.0 mi SSE 9.2 mph - N/A   Clear
10:15 AM 61.3 °F 38.3 °F 43% 30.15 in 10.0 mi SSE 10.4 mph - N/A   Clear
10:35 AM 62.4 °F 38.5 °F 41% 30.15 in 10.0 mi South 8.1 mph - N/A   Clear
10:55 AM 63.0 °F 39.2 °F 42% 30.14 in 10.0 mi SSE 9.2 mph - N/A   Clear
11:15 AM 64.9 °F 39.6 °F 39% 30.13 in 10.0 mi South 6.9 mph - N/A   Clear
11:35 AM 64.6 °F 39.0 °F 39% 30.12 in 10.0 mi South 6.9 mph - N/A   Clear
11:55 AM 65.7 °F 40.6 °F 40% 30.11 in 10.0 mi ESE 8.1 mph - N/A   Clear
12:15 PM 67.1 °F 41.4 °F 39% 30.10 in 10.0 mi SE 8.1 mph - N/A   Clear
12:35 PM 68.0 °F 40.8 °F 37% 30.09 in 10.0 mi SSE 6.9 mph - N/A   Clear
12:55 PM 67.8 °F 38.5 °F 34% 30.08 in 10.0 mi South 4.6 mph - N/A   Clear
1:15 PM 67.6 °F 39.7 °F 36% 30.07 in 10.0 mi SSE 9.2 mph - N/A   Clear
1:35 PM 68.4 °F 38.5 °F 33% 30.06 in 10.0 mi South 12.7 mph - N/A   Clear
1:55 PM 67.3 °F 37.8 °F 34% 30.05 in 10.0 mi SSE 11.5 mph - N/A   Clear
2:15 PM 67.8 °F 38.3 °F 34% 30.03 in 10.0 mi SSE 11.5 mph - N/A   Clear
2:35 PM 67.6 °F 37.0 °F 32% 30.02 in 10.0 mi SE 10.4 mph 17.3 mph N/A   Clear
2:55 PM 70.0 °F 37.2 °F 30% 30.01 in 10.0 mi SSE 12.7 mph 18.4 mph N/A   Clear
3:15 PM 70.3 °F 36.3 °F 29% 29.99 in 10.0 mi SE 10.4 mph - N/A   Clear
3:35 PM 70.3 °F 35.6 °F 28% 29.98 in 10.0 mi SSE 15.0 mph 20.7 mph N/A   Clear
3:55 PM 71.4 °F 34.2 °F 25% 29.97 in 10.0 mi SE 11.5 mph - N/A   Clear
4:15 PM 70.3 °F 35.2 °F 28% 29.96 in 10.0 mi SE 12.7 mph - N/A   Clear
4:35 PM 69.1 °F 36.0 °F 30% 29.94 in 10.0 mi SE 10.4 mph - N/A   Clear
4:55 PM 69.1 °F 36.7 °F 30% 29.95 in 10.0 mi South 6.9 mph - N/A   Clear
5:15 PM 68.7 °F 36.0 °F 30% 29.92 in 10.0 mi SE 12.7 mph 16.1 mph N/A   Scattered Clouds
5:35 PM 68.2 °F 36.1 °F 31% 29.94 in 10.0 mi South 6.9 mph - N/A   Scattered Clouds
5:55 PM 68.2 °F 36.1 °F 31% 29.95 in 10.0 mi SSW 5.8 mph - N/A   Clear
6:15 PM 67.3 °F 36.0 °F 32% 29.95 in 10.0 mi South 5.8 mph - N/A   Mostly Cloudy
6:35 PM 66.2 °F 35.8 °F 32% 29.95 in 10.0 mi SSW 8.1 mph - N/A   Overcast
6:55 PM 64.0 °F 36.1 °F 36% 29.95 in 10.0 mi SSE 10.4 mph 26.5 mph N/A   Drizzle
7:15 PM 62.6 °F 37.9 °F 40% 29.95 in 10.0 mi South 5.8 mph - N/A   Overcast
7:35 PM 63.0 °F 37.9 °F 40% 29.95 in 10.0 mi South 5.8 mph - N/A   Overcast
7:55 PM 62.4 °F 39.7 °F 43% 29.95 in 10.0 mi SSE 4.6 mph - N/A Rain Light Rain
8:15 PM 61.5 °F 40.1 °F 45% 29.94 in 10.0 mi SE 4.6 mph - N/A   Overcast
8:35 PM 62.2 °F 38.3 °F 41% 29.95 in 10.0 mi ESE 4.6 mph - N/A   Overcast
8:55 PM 60.4 °F 41.4 °F 49% 29.96 in 10.0 mi Calm Calm - N/A   Overcast
9:15 PM 60.1 °F 41.5 °F 50% 29.96 in 10.0 mi East 6.9 mph - N/A   Overcast
9:35 PM 60.6 °F 40.6 °F 48% 29.96 in 10.0 mi ENE 4.6 mph - N/A   Overcast
9:55 PM 59.9 °F 41.5 °F 51% 29.97 in 10.0 mi ENE 4.6 mph - N/A   Overcast
10:15 PM 60.3 °F 41.2 °F 49% 29.98 in 10.0 mi NNE 4.6 mph - N/A   Overcast
10:35 PM 58.8 °F 42.8 °F 55% 29.98 in 10.0 mi NE 3.5 mph - N/A   Overcast
10:55 PM 59.0 °F 42.1 °F 53% 29.98 in 10.0 mi Calm Calm - N/A   Overcast
11:15 PM 59.4 °F 41.4 °F 51% 29.98 in 10.0 mi East 3.5 mph - N/A   Overcast
11:35 PM 59.4 °F 42.1 °F 53% 29.96 in 10.0 mi ESE 3.5 mph - N/A   Overcast
11:55 PM 59.5 °F 41.5 °F 51% 29.97 in 10.0 mi Calm Calm - N/A Rain Light Rain